GS Le Panche Castelquarto

Associazione Sportiva Dilettantistica

2016-12-26_Za_Za.xlsx Download


Pos. ass.pos. M/Fpos. cat.Pett.Cognome Nomecateg.Societàtempodiff.
111146LABLAIDA AbdelolamedASSMG.S. MAIANO0:42:28
22259LASTRAIOLI LucaASSMATL. CASTELLO0:42:320:00:03
333124TREDICI MassimoASSMA.S.D. NUOVA ATLETICA LASTRA0:43:510:01:22
441607ANTONINI SilianoVETMATLETICA SIGNA A.S.D.0:44:370:02:09
554332PICCHI JuriASSMASD ATLETICA VINCI0:44:380:02:09
665316SOFTA LulzimASSMG.S. PIEVE A RIPOLI0:44:420:02:14
776338MARTELLI LeonardoASSMG.S. IL FIORINO0:44:490:02:20
887205MARINELLI GiuseppeASSMATL. CALENZANO0:44:520:02:23
998182FALCI ManuelASSMG.S. LE PANCHE CASTELQUARTO0:45:220:02:53
10109123FIORE AlessandroASSMA.S.D. NUOVA ATLETICA LASTRA0:45:230:02:55
111110237SPINA BAGLIONI LorenzoASSMATL. CASTELLO0:45:250:02:56
12121187LEPORE AlessioASSMPOL. FIESOLE ASD0:45:260:02:57
131312274SEQUI DanieleASSMATL. CASTELLO0:45:270:02:58
141413324MICHELINI DanieleASSMATL. CASTELLO0:45:320:03:04
15151419FANI RobertoASSMA.S.D. RISUBBIANI 20080:45:340:03:06
16162571BARBIERI FaustoVETMG.S. GABBI A.S.D.0:45:370:03:09
171715142FRANCHINI AndreaASSMG.S. MAIANO0:45:540:03:26
181816166RANFAGNI AlessioASSMG.S. IL FIORINO0:46:010:03:32
19191715MERLUZZO MatteoASSMG.S. FILIPPIDE - DLF CHIUSI0:46:080:03:39
202018201CASSI Samuele OskarASSMATL. CALENZANO0:46:140:03:46
212119107BUGIANI GiacomoASSMA.S.C.D. SILVANO FEDI0:46:200:03:51
22222085MARINARI MatteoASSMPOL. CASTELLO LARI 19890:46:290:04:00
232321216DOMMI AlessandroASSMNRT FIRENZE A.S.D.0:46:300:04:01
242422333MANNUCCI FabioASSMASD ATLETICA CAPRAIA E LIMITE0:46:390:04:10
25253471BALDI AntonioVETMISOLOTTO A.P.D.0:46:510:04:22
262623183FORTEZZA BorisASSMG.S. LE PANCHE CASTELQUARTO0:46:510:04:23
272724249RENZI StefanoASSMAVIS ZERO POSITIVO A.P.D.0:46:580:04:29
28284507BOUZID RidhaVETMA.S.D. NUOVA ATLETICA LASTRA0:47:060:04:38
29295508TORRACCHI AldoVETMA.S.D. NUOVA ATLETICA LASTRA0:47:100:04:42
303025195ROSSI DanieleASSMPODISTICA QUARRATA A.S.D.0:47:130:04:44
313126137BINI RiccardoASSMG.S. MAIANO0:47:160:04:47
32326457BURCHI GiulianoVETMA.S.D. G. P. LA STANCA0:47:180:04:50
33332732GIANNELLI AlessandroASSMATLETICA SIGNA A.S.D.0:47:210:04:52
343428197CIARDI AlessioASSMG.S. LE PANCHE CASTELQUARTO0:47:220:04:53
353529127MAGNANI GuidoASSM0:47:290:05:00
36367609PETRILLO AntonioVETMA.S.D. PODISTICA NARNALI0:47:360:05:07
373730234ANDALORO GuidoASSMCARICENTRO0:47:370:05:09
3811906GIANOTTI TizianaASSFATL. CASTELLO0:47:380:05:09
3938315PRUNETI AdamoASSMATLETICA SIGNA A.S.D.0:47:440:05:15
403932281SANTUCCI LorenzoASSMG.S. LE PANCHE CASTELQUARTO0:47:450:05:16
414033194RAFANELLI StefanoASSMPODISTICA QUARRATA A.S.D.0:47:520:05:24
42418581ILARIONI LucaVETMLUIVAN SETTIGNANO C.S.0:47:560:05:28
43423413BIGI MatteoASSMG.P. I RISORTI BUONCONVENTO ASD0:48:040:05:35
44433535SCARANO MatteoASSMISOLOTTO A.P.D.0:48:120:05:43
454436342CHIOCCINI ClaudioASSMG.S. LE PANCHE CASTELQUARTO0:48:150:05:46
464537150UNGUREANU ConstantinASSMG.S. MAIANO0:48:210:05:52
474638213CORAGGIO SimoneASSMIL GREGGE RIBELLE0:48:270:05:58
48473973SANTI NicolaASSMA.S.D. RUNNERS BARBERINO0:48:300:06:02
494840110VIVARELLI NicolaASSMA.S.C.D. SILVANO FEDI0:48:320:06:03
504941283BATI AlessandroASSMATLETICA PRATO0:48:470:06:18
51509569BIANCHI SergioVETMATLETICA PRATO0:48:480:06:20
525142209SETTESOLDI LucaASSMATL. CALENZANO0:48:500:06:22
535243165PELACCHI LucaASSMG.S. IL FIORINO0:48:520:06:23
545344106ANDREONI GabrieleASSMA.S.C.D. SILVANO FEDI0:49:020:06:33
555445351DABIZZI AndreaASSMATLETICA SIGNA A.S.D.0:49:090:06:40
565510582DI DONATO ClaudioVETMLUIVAN SETTIGNANO C.S.0:49:100:06:41
575646227FANALI SimoneASSMPOD.MISERICORDIA AGLIANESE 1980 A.S0:49:100:06:42
585747314TOSI Niccolo'ASSMG.S. MAIANO0:49:140:06:46
595848143GARCIA RonanASSMG.S. MAIANO0:49:180:06:49
60594999BORRACCI TommasoASSMLA FONTANINA A.P.S.0:49:230:06:54
616050308FARINA MassimoASSMATLETICA MARCIATORI MUGELLO A.S.D.0:49:270:06:59
626151163PASTORE VincenzoASSMG.S. IL FIORINO0:49:310:07:02
636252235BARONCINI LucaASSMCARICENTRO0:49:340:07:05
6463532MARI RobertoASSMATLETICA SIGNA A.S.D.0:49:360:07:07
656454153BERNARDINI MarcoASSMG.S. IL FIORINO0:49:440:07:15
6665557BACCI GabrieleASSMATLETICA SIGNA A.S.D.0:49:470:07:19
676656325BAZZICHI AndreaASSMATL. PIETRASANTA0:49:500:07:21
686757253TAGLIATI MassimilianoASSMAVIS ZERO POSITIVO A.P.D.0:49:530:07:25
696858109TOSETTI PaoloASSMA.S.C.D. SILVANO FEDI0:49:570:07:28
70695991BERTINI AndreaASSMG.S. LE PANCHE CASTELQUARTO0:50:010:07:33
717060229PAPI AlessioASSMA.S.D. RISUBBIANI 20080:50:050:07:36
727161269DICUONZO SimoneASSMG.S. LE PANCHE CASTELQUARTO0:50:070:07:38
737211588CASSI RobertoVETMG.S. MAIANO0:50:120:07:44
747362148NAPOLITANO DomenicoASSMG.S. MAIANO0:50:150:07:46
757412487LANDI SauroVETMG.S.D. LIBERTAS LA TORRE0:50:150:07:47
767563103ROMANO AlessandroASSMASS. RONDINELLA DEL TORRINO0:50:190:07:50
777664245NOCENTINI MarioASSMATLETICA MARCIATORI MUGELLO A.S.D.0:50:210:07:52
787713452STEFANINI MorenoVETMA.S.D. G. P. LA STANCA0:50:270:07:58
79786529BOCCHINO MiloASSMATLETICA SIGNA A.S.D.0:50:290:08:00
807966144GERI LorenzoASSMG.S. MAIANO0:50:310:08:02
8122807MANTELLI MartinaASSFASD TOSCANA ATLETICA EMPOLI NISSA0:50:310:08:03
828067298GIUGNO CarloASSMG.S. LE PANCHE CASTELQUARTO0:50:350:08:07
838114565CECCONI RiccardoVETMA.S.C.D. SILVANO FEDI0:50:390:08:11
848268305SOLDINI LucaASSMCLUB AUSONIA A.S.D.0:50:410:08:12
858369126DESSI SamueleASSMA.S.D. NUOVA ATLETICA LASTRA0:50:450:08:16
868470128SOTTANI GabrieleASSMPOL. R. MURRI ELLERA0:50:470:08:18
878571167ROSSI CurzioASSMG.S. IL FIORINO0:50:480:08:19
888615598FUSI LucaVETMG.S. MAIANO0:50:520:08:23
89877214FROSALI FedericoASSMA.S.D. G. P. LA STANCA0:50:550:08:26
908873310PAGANI GianniASSM0:50:570:08:28
918974307ASSUNTI MassimoASSMATLETICA SIGNA A.S.D.0:50:590:08:30
929075118NOBILE StefanoASSMMISERICORDIA GRIGNANO0:51:040:08:35
93911682GIORGINI NazzarenoARGMASD ATLETICA VINCI0:51:060:08:37
949276303GORI DanieleASSMA.S.C.D. SILVANO FEDI0:51:110:08:42
959377248GIOVANNINI ClaudioASSMATLETICA MARCIATORI MUGELLO A.S.D.0:51:110:08:43
96947822RINALDI GabrieleASSMASD MONTELUPO RUNNERS0:51:200:08:51
97957920GIANNITTI PietroASSMS.S.D.S. MENS SANA IN CORPORE SANO0:51:220:08:53
989680268FIESOLI GiusvanASSMA.S.D. FIRENZE TRIATHLON0:51:250:08:56
999781212PASQUALETTI StefanoASSMIL GREGGE RIBELLE0:51:270:08:58
1009816602TORRINI AndreaVETMG.S. MAIANO0:51:270:08:58
1019917522SENISE BiagioVETMPOL. OLTRARNO0:51:280:08:59
10210082108DE SANTIS GianfrancoASSMA.S.C.D. SILVANO FEDI0:51:280:08:59
10310183158GIUSTI LapoASSMG.S. IL FIORINO0:51:280:09:00
10410284105SCAPPUCCI MarioASSMASS. RONDINELLA DEL TORRINO0:51:300:09:01
10510385151ALBERGO StefanoASSMG.S. IL FIORINO0:51:330:09:04
1061048616ALDERIGHI LeonardoASSM0:51:330:09:04
1071052702MEI RobertoARGMA.S.C.D. SILVANO FEDI0:51:340:09:05
1081068758GALANTINI FilippoASSMCANOTTIERI COMUNALI FIRENZE0:51:370:09:08
10910718500PANZANI AndreaVETMPOD. EMPOLESE 19860:51:390:09:10
11010888257PAPUCCI LeonardoASSMAVIS ZERO POSITIVO A.P.D.0:51:460:09:17
11133907DELBECCHI StefaniaASSFASD ATLETICA VINCI0:51:480:09:19
11210989349SIRIO GiacomoASSMA.S.C.D. SILVANO FEDI0:51:480:09:20
11311090265ORBETTI StefanoASSMNAVE U.S. A.S.D.0:51:490:09:20
11411191254ROSSI FrancescoASSMAVIS ZERO POSITIVO A.P.D.0:51:530:09:25
11511219610D'AIUTO GiuseppeVETMATLETICA SIGNA A.S.D.0:51:570:09:28
1161139289TACCONI AlbertoASSMPOL. FIESOLE ASD0:51:570:09:28
11711420505SALVADOR GiuseppeVETMG.S. IL FIORINO0:52:030:09:35
11811521543DURANTE EmidioVETMCROCE D'ORO MONTALE0:52:030:09:35
1191163684CHITI ClaudioARGMATLETICA SIGNA A.S.D.0:52:050:09:36
1201174718MANNUCCI GiovanniARGMASD ATLETICA CAPRAIA E LIMITE0:52:050:09:36
12111893350RENZINI RobertoASSMG.S. LE PANCHE CASTELQUARTO0:52:090:09:41
12211994223BELLINI MassimoASSMG.S. LE TORRI PODISMO0:52:100:09:41
12312022585ALPIGIANI DavideVETMG.S. MAIANO0:52:150:09:46
12412195211PULCINELLI MarcoASSMIL GREGGE RIBELLE0:52:170:09:48
12512296177LORENZI AlessandroASSMPOL. OLTRARNO0:52:170:09:48
12612323477BRUTTINI PaoloVETMNAVE U.S. A.S.D.0:52:190:09:50
12712424594MISCEO LeonardoVETMG.S. MAIANO0:52:190:09:51
12812597326NALDI MarcoASSMATL. CALENZANO0:52:200:09:52
129126989SCARAMUCCI GabrieleASSMG.P. I RISORTI BUONCONVENTO ASD0:52:210:09:52
13012799258RIZZI LeonardoASSMAVIS ZERO POSITIVO A.P.D.0:52:260:09:57
1311285705LARINI GiuseppeARGMG.S. MAIANO0:52:290:10:01
13212910060D'ECLESIIS GiovanniASSMATL. CASTELLO0:52:320:10:03
13313025592FORMELLI LorenzoVETMG.S. MAIANO0:52:330:10:05
13444822TREDICI SerenaASSFA.S.D. RUNNERS BARBERINO0:52:340:10:05
135131101111LADANZA MaurizioASSM0:52:350:10:06
1361326740SIENI RenzoARGMG.S. MAIANO0:52:410:10:12
137133102125LA GRECA EnzoASSMA.S.D. NUOVA ATLETICA LASTRA0:52:420:10:13
13813426504ROSAI FrancescoVETMG.S. IL FIORINO0:52:450:10:16
139135103193PAJTA MatteoASSMPODISTICA QUARRATA A.S.D.0:52:480:10:20
140136104300CALDAROLA FilippoASSMLUIVAN SETTIGNANO C.S.0:52:530:10:24
141137105186ATTUCCI ArmandoASSMPODISTICA QUARRATA A.S.D.0:52:580:10:30
1421381061GIULIANI StefanoASSMATLETICA SIGNA A.S.D.0:53:010:10:32
14313910790BATTISTA DonatoASSMA.S.D. FIRENZE TRIATHLON0:53:040:10:35
14414010854ERMANNI Jose' DavidASSMATL. CASALGUIDI ARISTON0:53:050:10:36
145141109173CIRRI MassimoASSMPOL. OLTRARNO0:53:070:10:38
146142110176NERI AndreaASSMPOL. OLTRARNO0:53:070:10:38
14755897BARGIACCHI StefaniaASSFA.S.C.D. SILVANO FEDI0:53:090:10:40
148143111161MUGLIA DanieleASSMG.S. IL FIORINO0:53:130:10:44
14914411257BESSI RobertoASSMA.S.D. PRATO PROMOZIONE0:53:140:10:45
150145113136BEN MOUSSA MohamedASSMG.S. MAIANO0:53:160:10:47
15114611440FIORDI StefanoASSMNAVE U.S. A.S.D.0:53:180:10:50
152147115259GRAZIANI AlessioASSMAVIS ZERO POSITIVO A.P.D.0:53:220:10:53
153148116345PAOLETTI MassimilianoASSMA.S.D. FIRENZE TRIATHLON0:53:230:10:54
154149117301LORENZI AngeloASSMLUIVAN SETTIGNANO C.S.0:53:300:11:01
1551507731CEFALA' DomenicoARGMCROCE D'ORO MONTALE0:53:310:11:02
15615127506SCARPELLI LucaVETMG.S. IL FIORINO0:53:380:11:09
15715228453MERANDO SalvatoreVETMA.S.D.CITTÀ DI OPERA0:53:420:11:13
158153118252RICCI LuigiASSMAVIS ZERO POSITIVO A.P.D.0:53:440:11:16
159154119329MENICACCI AndreaASSM0:53:500:11:21
16015512031DI CARLO MarcoASSMATLETICA SIGNA A.S.D.0:53:570:11:28
16166798FIASCHI LauraASSFATLETICA SIGNA A.S.D.0:53:580:11:29
162156121243LA MURA IvanoASSMIL PONTE SCANDICCI A.S.D. PODISTICA0:53:580:11:29
1631571224MORETTINI VieriASSMATLETICA SIGNA A.S.D.0:53:590:11:30
164158123114BALDI MassimilianoASSMMISERICORDIA GRIGNANO0:53:590:11:30
165159124217MUNTONI MarcoASSMNRT FIRENZE A.S.D.0:54:030:11:34
16616029464CORBO GiuseppeVETMATLETICA SIGNA A.S.D.0:54:040:11:36
16716130546GISTRI FrancoVETMIL PONTE SCANDICCI A.S.D. PODISTICA0:54:090:11:40
168162125228VARESI PaoloASSMG.S. LE TORRI PODISMO0:54:110:11:42
169163126149PATERGNANI LucaASSMG.S. MAIANO0:54:120:11:43
17016412797BECHI StefanoASSMLA FONTANINA A.P.S.0:54:140:11:45
171165128233INDIANO VincenzoASSMG.S. PIEVE A RIPOLI0:54:140:11:45
17216612977LASTRUCCI FrancescoASSMA.S.D. RUNNERS BARBERINO0:54:140:11:45
17316731539CUPOLO RoccoVETMG.S. PIEVE A RIPOLI0:54:140:11:46
174168130169SCALELLA SimoneASSMG.S. IL FIORINO0:54:220:11:53
17516932456MATTEUCCI SergioVETMA.S.D. GRUPPO POD. ROSSINI0:54:230:11:54
17677833ROSSI FrancescaASSFCLUB SPORTIVO FIRENZE0:54:250:11:56
177170131279ZAZZARO SalvatoreASSMPOL. R. MURRI ELLERA0:54:350:12:06
17817133527GUIDI FrancescoVETMG.S. LE PANCHE CASTELQUARTO0:54:370:12:09
179172132312NERI LucianoASSMG.S. MAIANO0:54:390:12:10
18017334474MATERASSI PaoloVETMISOLOTTO A.P.D.0:54:410:12:12
181174133267FRANCO LuigiASSMG.S. LE PANCHE CASTELQUARTO0:54:420:12:13
182175134187BALLI MassimilianoASSMPODISTICA QUARRATA A.S.D.0:54:460:12:17
18317635550ROCCHI RiccardoVETMIL PONTE SCANDICCI A.S.D. PODISTICA0:54:480:12:20
18417736572ROSADI FaustoVETMA.S.D. MEZZANA - LE LUMACHE0:54:500:12:21
185178135270ROMANO DonatoASSM0:54:550:12:26
186179136306PERRINO PaoloASSMG.P. FRATELLANZA POPOLARE GRASSIN0:54:570:12:28
18718037595SALVADORI AlessioVETMG.S. MAIANO0:55:000:12:31
188181137275SIANO RaffaeleASSMPOL. R. MURRI ELLERA0:55:010:12:32
18981961DE PASQUALE SilvanaVETFG.S. IL FIORINO0:55:040:12:35
19018238523BARCHIELLI MorenoVETMG.S. LE PANCHE CASTELQUARTO0:55:060:12:37
1911838708ROMITI MauroARGMG.S. MAIANO0:55:070:12:39
19218439492FARINA UmbertoVETMG.P. FRATELLANZA POPOLARE GRASSIN0:55:070:12:39
19318513856DE FILIPPO SalvatoreASSMASD TOSCANA ATLETICA EMPOLI NISSA0:55:100:12:41
19418640466LOMBARDI RobertoVETMATLETICA SIGNA A.S.D.0:55:130:12:44
19518741559TORTOLI BernardoVETM0:55:150:12:46
19618813976DI STEFANO JuriASSMA.S.D. RUNNERS BARBERINO0:55:150:12:47
19718942460RONDINI FabrizioVETMA.S.D. ATLETICA UMBERTIDE0:55:200:12:51
198190140341FANTECHI SimoneASSMNAVE U.S. A.S.D.0:55:230:12:54
199191141198TALINI LeonardoASSMG.S. LE PANCHE CASTELQUARTO0:55:250:12:56
20019243612MARESCOTTI PaoloVETMGRUPPO PODISTI RESCO 1909 A.S.D.0:55:380:13:09
20119314252SANSONI MatteoASSMNAVE U.S. A.S.D.0:55:400:13:11
2021949710DEIANA MorenoARGMG.S. MAIANO0:55:430:13:14
20319544586BIAGI AndreaVETMG.S. MAIANO0:55:490:13:20
20419614382FALASCHI CristianASSMPOD. EMPOLESE 19860:55:500:13:21
20519710711BRASCHI AndreaARGMG.S. IL FIORINO0:55:510:13:22
20619814470ZOPPI LeonardoASSMG.S. POLI - PODI A.S.D.0:55:530:13:25
20798834CIOLLI GiuliaASSFG.S. IL FIORINO0:55:560:13:27
20819911739SIDDU MarcelloARGMG.S. MAIANO0:56:020:13:34
209200145220MATTEUZZI TommasoASSMG.S. LE TORRI PODISMO0:56:030:13:34
210201146181BARBIERI FrancescoASSMPOL. OLTRARNO0:56:060:13:37
21120245542GHERI FilippoVETMCARICENTRO0:56:060:13:37
212203147297CECCONI MassimilianoASSMPODISTICA VAL DI PESA A.S.D.0:56:090:13:40
213204148328TADDEI AlessioASSMPODISTICA VAL DI PESA A.S.D.0:56:120:13:43
214109904TONI RobertaASSFPOL. DIL. OMEGA.COM0:56:130:13:44
21520546561LORINI FabrizioVETMG.S. LE PANCHE CASTELQUARTO0:56:130:13:44
216206149331TONI SandroASSMASD TOSCANA ATLETICA EMPOLI NISSA0:56:160:13:47
217207150104CASTELLINI MassimilianoASSMASS. RONDINELLA DEL TORRINO0:56:190:13:50
21820812725CALLISTO RoccoARGMIL PONTE SCANDICCI A.S.D. PODISTICA0:56:200:13:51
2192091773DEL FRANCO MicheleOROMG.S. MAIANO0:56:210:13:52
220210151262CASSARA' CristianASSMAVIS ZERO POSITIVO A.P.D.0:56:220:13:53
22121147579CONTI FabrizioVETMCLUB AUSONIA A.S.D.0:56:230:13:55
22221248606GIUNTI EnricoVETMPOL. DIL. OMEGA.COM0:56:240:13:55
22321315284VIGNOZZI FrancescoASSMPOD. EMPOLESE 19860:56:240:13:55
224214153134MINERVINI LucaASSMPOL. R. MURRI ELLERA0:56:240:13:55
22521513723ORRU GiuseppeARGMIL PONTE SCANDICCI A.S.D. PODISTICA0:56:260:13:58
22621614703POGGETTO EmilioARGMPOL. I' GIGLIO0:56:330:14:04
227217154250MANNINI ClaudioASSMAVIS ZERO POSITIVO A.P.D.0:56:330:14:05
228218155260MORANDI AndreaASSMAVIS ZERO POSITIVO A.P.D.0:56:350:14:06
229219156251AGNOLETTI AlessandroASSMAVIS ZERO POSITIVO A.P.D.0:56:350:14:07
23022015744MARENA MatteoASSMNAVE U.S. A.S.D.0:56:380:14:10
23122149467NERI SimoneVETMATLETICA SIGNA A.S.D.0:56:390:14:10
2321110876BARTOLI FedericaASSFG.S. PIEVE A RIPOLI0:56:400:14:12
23322250614SANGIORGI FabrizioVETMPODISTICA VAL DI PESA A.S.D.0:56:430:14:14
23422351503PASI MarcoVETMG.S. IL FIORINO0:56:460:14:17
23522452601BENCI MarcoVETMG.S. MAIANO0:56:470:14:18
2361211896GIACHETTI ValentinaASSFLUIVAN SETTIGNANO C.S.0:56:470:14:19
23722553613FINOCCHIARO DarioVETMCLUB AUSONIA A.S.D.0:56:490:14:20
238226158179TAFANI SandroASSMPOL. OLTRARNO0:56:500:14:21
23922754570BRESCHI RiccardoVETMSCHIGNANO CORSE0:56:510:14:22
24022855616TRIPPODO LorenzoVETMA.S.D. NUOVA ATLETICA LASTRA0:56:540:14:25
241229159246EMANUELE VincenzoASSMATLETICA MARCIATORI MUGELLO A.S.D.0:56:540:14:26
24223015681D'ALVANO MicheleARGMG.P. LA VERRU'A A.S.D.0:56:570:14:29
243231160240INNOCENTI AndreaASSMIL PONTE SCANDICCI A.S.D. PODISTICA0:57:020:14:34
24423256480DOMMI MassimoVETMNAVE U.S. A.S.D.0:57:050:14:37
24523357557PIETRINI FrancoVETMISOLOTTO A.P.D.0:57:080:14:39
246234161130SALVI GabrieleASSMPOL. R. MURRI ELLERA0:57:080:14:39
2471312912VENDRAMIN EleonoraASSFG.S. LE PANCHE CASTELQUARTO0:57:100:14:41
2481413895SPINELLI ValentinaASSFCLUB AUSONIA A.S.D.0:57:110:14:42
24923558580TIBERIO FrancoVETMCLUB AUSONIA A.S.D.0:57:130:14:44
25023659465GUIDA RiccardoVETMATLETICA SIGNA A.S.D.0:57:140:14:46
25123760535VESPRO FrancoVETMG.S. LE TORRI PODISMO0:57:180:14:49
2521514827MORELLI ElisaASSFPOD. EMPOLESE 19860:57:180:14:49
253238162263TINTI FrancescoASSMAVIS ZERO POSITIVO A.P.D.0:57:190:14:50
2542392772SALVADORI SirioOROMA.S.D. LA GALLA PONTEDERA ATLETICA0:57:220:14:54
25524061470SPINELLA MarioVETMATLETICA SIGNA A.S.D.0:57:240:14:56
25624116312ARMI LorenzoASSMG.P. I RISORTI BUONCONVENTO ASD0:57:290:15:00
2571615796MANETTI IsabellaASSFATLETICA SIGNA A.S.D.0:57:310:15:03
25824262530SECCI AndreaVETMG.S. LE PANCHE CASTELQUARTO0:57:330:15:04
2592433776PIETROSANTI GiovanniOROMIL PONTE SCANDICCI A.S.D. PODISTICA0:57:400:15:11
26024416439FALSETTI FabioASSMNAVE U.S. A.S.D.0:57:410:15:12
261245165214MIGLIORINI FrancescoASSMIL GREGGE RIBELLE0:57:420:15:13
2621716888FABBRIZZI LaraASSFA.S.D. IMPRUNETA RUNNING0:57:420:15:13
263182959BARBOI CameliaVETFG.S. MAIANO0:57:450:15:16
264246166337GALLO TizianoASSMG.P. FRATELLANZA POPOLARE GRASSIN0:57:470:15:19
26524763491BIANCHINI DonatoVETMG.S. POLI - PODI A.S.D.0:57:500:15:21
26624864509MATTEONI AdrianoVETMATL. PORCARI0:57:540:15:26
26724916738CIARDINI LorenzoASSMNAVE U.S. A.S.D.0:58:000:15:31
26825065514CONTINI MaurizioVETMLA FONTANINA A.P.S.0:58:010:15:32
269251168184PINELLI AndreaASSMG.S. LE PANCHE CASTELQUARTO0:58:010:15:32
27025266498MALVOLTI SimoneVETMPOD. EMPOLESE 19860:58:030:15:34
271253169206NICCOLI FabrizioASSMATL. CALENZANO0:58:070:15:38
2721917839MORETTI SilviaASSFG.S. IL FIORINO0:58:080:15:39
2732018838MAMELI SilviaASSFG.S. IL FIORINO0:58:090:15:40
27425416685DI GIOIA NicolaARGMATLETICA SIGNA A.S.D.0:58:100:15:41
27525567463VINATTIERI AlessioVETMATLETICA SIGNA A.S.D.0:58:140:15:45
276256170330GHERI GiampietroASSMA.S.D. NUOVA ATLETICA LASTRA0:58:170:15:48
2772119797SANTONI MariaASSFATLETICA SIGNA A.S.D.0:58:210:15:52
27825717181BALDASSINI MatteoASSMPOD. EMPOLESE 19860:58:250:15:56
27925817274DI MAGGIO CiroASSMA.S.D. RUNNERS BARBERINO0:58:290:16:00
280259173190LOMBARDI MassimilianoASSMPODISTICA QUARRATA A.S.D.0:58:300:16:01
281260174286BONACCHI SimoneASSMA.S.D. 29 MARTIRI0:58:320:16:04
282261175290CACCAMO FrancescoASSMA.S.D. 29 MARTIRI0:58:380:16:09
28326217617BENCINI GionataASSMA.S.D. RAMPICHINO CHIANTI TEAM0:58:400:16:11
284263177135SASSETTI RobertoASSMPOL. R. MURRI ELLERA0:58:420:16:13
2852220824MIGLIORI MichelaASSFA.S.D. RUNNERS BARBERINO0:58:430:16:14
286264178160MOROZZI CarloASSMG.S. IL FIORINO0:58:440:16:15
28726568574CIONI MassimilianoVETMCLUB AUSONIA A.S.D.0:58:460:16:17
288266179296RONCONI MassimilianoASSMCLUB AUSONIA A.S.D.0:58:460:16:18
2892321863TAMENI VeronicaASSFG.S. LE PANCHE CASTELQUARTO0:58:480:16:19
29026769512GUASPARRI SimoneVETMPOL. FIESOLE ASD0:58:500:16:21
291268180327MARIANI FrancescoASSMCASA CULTURALE SAN MINIATO0:58:510:16:22
29226917699SANTINI LucianoARGMPOD. EMPOLESE 19860:58:550:16:26
29327018697FINI LucianoARGMPOD. EMPOLESE 19860:58:550:16:26
2942422882CORDONE ValentinaASSFAVIS ZERO POSITIVO A.P.D.0:58:570:16:28
29527118128BARCIA AlessandroASSMATLETICA SIGNA A.S.D.0:59:000:16:31
296272182152BALLERINI ClaudioASSMG.S. IL FIORINO0:59:010:16:32
29727318395BACHERINI StefanoASSMLA FONTANINA A.P.S.0:59:010:16:32
29827470459RUSSO PaoloVETM0:59:020:16:34
29927518430DELL'ORCO MassimoASSMATLETICA SIGNA A.S.D.0:59:030:16:34
300276185346ALI' AlessandroASSMPODISTICA VAL DI PESA A.S.D.0:59:050:16:36
301277186226CRESTI SimoneASSMG.S. LE TORRI PODISMO0:59:070:16:38
3022523901MAGNI FrancescaASSFG.S. MAIANO0:59:090:16:40
303278187256CASINI FrancescoASSMAVIS ZERO POSITIVO A.P.D.0:59:090:16:41
304279188302MARIOTTI MatteoASSMLUIVAN SETTIGNANO C.S.0:59:120:16:44
30528018998BINDI AlessandroASSMLA FONTANINA A.P.S.0:59:200:16:52
30628119061CHLISTOVSKJ FilippoASSMA.S.D. PODISTICA NARNALI0:59:230:16:54
307282191113BONSANGUE StefanoASSMPOL. BONELLE APD0:59:250:16:56
308283192292GENSINI MaurizioASSMA.S.D MARATONABILI ONLUS0:59:260:16:58
309284193208SESTAIONI StefanoASSMATL. CALENZANO0:59:270:16:58
3102624871MOHAMED MOHAMUD SeyASSFG.S. LE TORRI PODISMO0:59:320:17:03
311285194204IAROSSI AgostinoASSMATL. CALENZANO0:59:320:17:04
3122725885MURO CristinaASSF0:59:330:17:04
31328619704FRANCHI GiovanniARGMG.S. MAIANO0:59:330:17:05
314287195200BRUNETTI SimoneASSMATL. CALENZANO0:59:350:17:06
315288196231GAMBETTA VIANNA GianniASSMG.S. LE TORRI PODISMO0:59:360:17:07
31628919711GIANNI LIVIGNI PaoloASSM0:59:370:17:09
317290198224BARTOLINI CarloASSMG.S. LE TORRI PODISMO0:59:390:17:10
318291199188BIANCALANI GiacomoASSMPODISTICA QUARRATA A.S.D.0:59:400:17:11
31929271451SCALELLA PaoloVETMPOL. FIESOLE ASD0:59:410:17:12
320293200207PACINI SimoneASSMATL. CALENZANO0:59:440:17:15
32129472521PICCIOLI MaurizioVETMPOL. OLTRARNO0:59:450:17:16
32229520151ROMANI GabrieleASSMNAVE U.S. A.S.D.0:59:490:17:20
32329620696BARTOLOZZI LucianoARGMATLETICA SIGNA A.S.D.0:59:500:17:21
324297202117SIMONCINI GiancarloASSMMISERICORDIA GRIGNANO0:59:510:17:22
325298203218MARMINO StefanoASSMPOL. R. MURRI ELLERA0:59:510:17:22
3262826814POLEGRI LauraASSFG.S. POLI - PODI A.S.D.0:59:550:17:26
32729973549SORDI StefanoVETMIL PONTE SCANDICCI A.S.D. PODISTICA1:00:000:17:31
32830074541LAPENTA DomenicoVETMASSI GIGLIO ROSSO1:00:030:17:34
32930175583FABBRINI SimoneVETMLUIVAN SETTIGNANO C.S.1:00:040:17:35
330302204156D'ESPOSITO MarioASSMG.S. IL FIORINO1:00:050:17:36
33130320594ALPI PaoloASSMLA FONTANINA A.P.S.1:00:060:17:37
33230476495DI MULO AntonioVETMA.S.D. RUNNERS BARBERINO1:00:070:17:38
333305206238MICHELINI FabrizioASSMIL PONTE SCANDICCI A.S.D. PODISTICA1:00:110:17:42
33430677536CAVALLINI MaurizioVETMG.S. LE TORRI PODISMO1:00:170:17:48
33530721687PALATRESI EnzoARGMASD TOSCANA ATLETICA EMPOLI NISSA1:00:180:17:49
3363084784CENCI NoricoOROMG.S. PIEVE A RIPOLI1:00:190:17:50
3372927866FRANCIONI SilviaASSFATL. CALENZANO1:00:270:17:58
338309207202CECCHERINI LorenzoASSMATL. CALENZANO1:00:270:17:58
339310208339CHELLI AlessandroASSMLIVORNO TEAM RUNNING1:00:280:18:00
340311209162PARRINI BernardoASSMG.S. IL FIORINO1:00:300:18:01
34131278528LO GIOCO GianlucaVETMG.S. LE PANCHE CASTELQUARTO1:00:310:18:02
34231379490SANTANGELI FlavioVETMG.S. POLI - PODI A.S.D.1:00:320:18:03
343314210294LASTINI RobertoASSMCLUB AUSONIA A.S.D.1:00:340:18:06
34431521137CENCETTI NicolaASSMNAVE U.S. A.S.D.1:00:400:18:11
34531680564LEO RobertoVETMCLUB SPORTIVO FIRENZE1:00:440:18:16
346317212119MATTEONI FedericoASSMG.S. ORECCHIELLA GARFAGNANA1:00:470:18:18
347318213241GAFFORIO FrancescoASSMIL PONTE SCANDICCI A.S.D. PODISTICA1:00:470:18:19
348319214232GASPERINI PietroASSMG.S. LE TORRI PODISMO1:00:490:18:20
34932021568RUSSO LorenzoASSMG.S. POLI - PODI A.S.D.1:00:550:18:27
35032181603MATTEUZZI SimoneVETMG.S. LE TORRI PODISMO1:00:590:18:30
351322216180TILLI AndreaASSMPOL. OLTRARNO1:01:020:18:33
352323217171CARINI SergioASSMPOL. OLTRARNO1:01:020:18:33
35332482587BIANCHI LeonardoVETMG.S. MAIANO1:01:090:18:40
354325218323DE CARIA FrancoASSMPOD.MISERICORDIA AGLIANESE 1980 A.S1:01:090:18:40
35532683531BALDI AlessioVETMPODISTICA QUARRATA A.S.D.1:01:090:18:41
3563028799TERCHI BarbaraASSFISOLOTTO A.P.D.1:01:100:18:41
35732784590DELLA TORRE AlessioVETMG.S. MAIANO1:01:110:18:43
35832822720ZUFFA AndreaARGMG.S. LE TORRI PODISMO1:01:140:18:45
359329219170BENVENUTI RiccardoASSMPOL. OLTRARNO1:01:140:18:45
36033085558FRANGIONI NicolaVETMISOLOTTO A.P.D.1:01:190:18:50
361331220100DONATI Nicolo'ASSMLA FONTANINA A.P.S.1:01:190:18:50
36233222118MARTINI MarcoASSMA.S.D. SIENARUNNERS1:01:210:18:52
3633129808MONCIATTI ManuelaASSFATL. CASTELLO1:01:230:18:55
36433386589CASTOLDI PAGANELLI GianVETMG.S. MAIANO1:01:240:18:55
365334222278GALEAZZI MircoASSMATL. CALENZANO1:01:240:18:55
366323944DUCCI SabrinaVETFISOLOTTO A.P.D.1:01:260:18:57
367335223155CICALI AlessioASSMG.S. IL FIORINO1:01:260:18:57
368336224340CAVICCHI FabrizioASSMNAVE U.S. A.S.D.1:01:280:18:59
36933723717BELLINI Giacomo AlessandroARGMPODISTICA QUARRATA A.S.D.1:01:290:19:01
3703330836FROSALI ValentinaASSFG.S. IL FIORINO1:01:300:19:01
371338225112QUERCI AlessioASSMA.S.C.D. SILVANO FEDI1:01:310:19:02
372339226131RUFI AlessioASSMPOL. R. MURRI ELLERA1:01:340:19:05
37334024745MASSINI FulvioARGMASSI GIGLIO ROSSO1:01:340:19:06
37434187600MONTELATICI AndreaVETMG.S. MAIANO1:01:360:19:07
375344983SASSOLINI SerenaVETFCLUB AUSONIA A.S.D.1:01:370:19:08
376342227189CERBONESCHI AlessandroASSMPODISTICA QUARRATA A.S.D.1:01:380:19:09
37734322862BIFFONI AlessandroASSMA.S.D. PODISTICA NARNALI1:01:400:19:12
37834488518MATTEI MarcoVETMASS. RONDINELLA DEL TORRINO1:01:450:19:17
37934522953SANTINAMI CosimoASSMNAVE U.S. A.S.D.1:01:500:19:21
380355942DONATI LuciaVETFA.S.D. G. P. LA STANCA1:01:550:19:26
3813631831BACHERINI IlariaASSFG.S. IL FIORINO1:01:580:19:29
382346230210TAVERNA GianlucaASSMATL. CALENZANO1:01:590:19:30
383376967BARONI SandraVETFATL. CALENZANO1:01:590:19:30
384387945PARENTI SoniaVETFISOLOTTO A.P.D.1:02:060:19:37
38534789567VALENTI VieriVETMASSI GIGLIO ROSSO1:02:150:19:46
386348231282GRASSI RobertoASSMA.S.D. NUOVA ATLETICA LASTRA1:02:220:19:53
387349232185RACITO Francesco SeveroASSMG.S. LE PANCHE CASTELQUARTO1:02:220:19:53
388350233138BRUNO GiordanoASSMG.S. MAIANO1:02:230:19:54
389351234289PAIAR FilippoASSMA.S.D. 29 MARTIRI1:02:280:19:59
390352235288ULIVI SimoneASSMA.S.D. 29 MARTIRI1:02:280:20:00
391353236321PASQUINI FrancoASSM1:02:320:20:03
39235490555PILATI FrancescoVETMAVIS ZERO POSITIVO A.P.D.1:02:320:20:03
393355237159MARAFIOTI MorenoASSMG.S. IL FIORINO1:02:330:20:05
39435691575FRATONI MaurizioVETMCLUB AUSONIA A.S.D.1:02:340:20:05
395357238255PALMADESSA SimoneASSMAVIS ZERO POSITIVO A.P.D.1:02:350:20:06
3963932873BARTOLINI SilviaASSFG.S. LE TORRI PODISMO1:02:360:20:07
397358239225SANSAVINI StefanoASSMG.S. LE TORRI PODISMO1:02:360:20:08
39835924046MEONI MassimoASSMNAVE U.S. A.S.D.1:02:390:20:10
39936024165PACI GabrieleASSMASD ATLETICA CAPRAIA E LIMITE1:02:390:20:10
40036124226MATTEUCCI MauroASSMA.S.D. GRUPPO POD. ROSSINI1:02:430:20:14
401408974PAOLI Maria LetiziaVETFG.S. LE TORRI PODISMO1:02:440:20:15
402362243203FANTECHI FabrizioASSMATL. CALENZANO1:02:440:20:15
403363244174GAMBUTI CosimoASSMPOL. OLTRARNO1:02:470:20:18
40436424534RAFFINI StefanoASSMISOLOTTO A.P.D.1:02:480:20:19
4054133837GROSSI SilviaASSFG.S. IL FIORINO1:02:480:20:19
4064234832BONGINI ElisaASSFG.S. IL FIORINO1:02:490:20:20
407439980NISTRI AnnamariaVETFCRAL DIP. UNIVERSITÀ FIRENZE1:02:490:20:20
40836524633MOSCATELLI AntonioASSMISOLOTTO A.P.D.1:02:490:20:20
40936692599MAGNI LucaVETMG.S. MAIANO1:02:510:20:22
410367247343PALANDRI GabrieleASSM1:02:510:20:23
41136893525CARPANESI FedericoVETMG.S. LE PANCHE CASTELQUARTO1:03:010:20:32
41236924847NARCISO AndreaASSMNAVE U.S. A.S.D.1:03:020:20:33
41337024948PANE CristianASSMNAVE U.S. A.S.D.1:03:020:20:33
41437194591FANETTI PierluigiVETMG.S. MAIANO1:03:030:20:34
41537295529RITA PieroVETMG.S. LE PANCHE CASTELQUARTO1:03:040:20:35
41637325683MANZO MatteoARGMG.S. PIAN DI SAN BARTOLO1:03:070:20:38
41737425027TANI NicolaASSMASD ATLETICA VINCI1:03:110:20:42
41837596501BROGI MassimoVETMG.S. IL FIORINO1:03:110:20:42
419376251261DI TOMMASO IacopoASSMAVIS ZERO POSITIVO A.P.D.1:03:110:20:42
4203775789SORO GraziettoOROMATL. VALDARNO1:03:120:20:43
4214410947SICURANZA SilviaVETFISOLOTTO A.P.D.1:03:160:20:47
42237897519ARNETOLI LeonardoVETMPOL. OLTRARNO1:03:160:20:47
42337925269DONZELLI GabrieleASSMG.S. POLI - PODI A.S.D.1:03:160:20:48
424380253191PACINI WalterASSMPODISTICA QUARRATA A.S.D.1:03:180:20:49
42538198553CIPRIANI SimoneVETMIL PONTE SCANDICCI A.S.D. PODISTICA1:03:240:20:55
426382254239RINGRESSI MarcoASSMIL PONTE SCANDICCI A.S.D. PODISTICA1:03:250:20:56
427383255120BARTOLI AlessandroASSMA.S.D. JOLLY MOTORS1:03:270:20:59
42838425649PECCHIOLI StefanoASSMNAVE U.S. A.S.D.1:03:350:21:06
42938599576GIANASSI GiuseppeVETMCLUB AUSONIA A.S.D.1:03:370:21:08
43038625710BIGAZZI ParideASSMG.P. I RISORTI BUONCONVENTO ASD1:03:370:21:09
431387258335VILLANI AlessandroASSMGRUPPO PODISTI RESCO 1909 A.S.D.1:03:380:21:10
432388259266CASATI PaoloASSMHUP SESTO HUP - CAJ 25 APRILE1:03:390:21:10
43338926072LASCIALFARI FulvioASSMPODISTICA PRATONORD A.S.D.1:03:410:21:12
4344535877BOSCHI ManuelaASSFIL PONTE SCANDICCI A.S.D. PODISTICA1:03:420:21:14
435390261102GIORDANI PieroASSMLA FONTANINA A.P.S.1:03:430:21:14
436391262244TALANTI FilippoASSMIL PONTE SCANDICCI A.S.D. PODISTICA1:03:430:21:14
437392100516RUBINI PierpaoloVETMLA FONTANINA A.P.S.1:03:450:21:16
4384636840PEDRONI EmanuelaASSFG.S. IL FIORINO1:03:470:21:18
43939326686MANSUINO MarioARGMNAVE U.S. A.S.D.1:03:510:21:22
4403946775MINIGHETTI ValterOROMPODISTICA QUARRATA A.S.D.1:03:520:21:24
44139526343LAZZERI AndreaASSMNAVE U.S. A.S.D.1:03:530:21:24
44239627743CANESCHI SilvanoARGMCRAL DIP. UNIVERSITÀ FIRENZE1:03:530:21:25
443397264121MARIOTTI TommasoASSMA.S.D. JOLLY MOTORS1:04:000:21:31
4444737793DASCALU Mirela LauraASSFA.S.D. ATLETICA UMBERTIDE1:04:020:21:33
44539828744PIERUCCI FoscoARGMG.S. LE PANCHE CASTELQUARTO1:04:030:21:34
44639929722BENEDETTI EnioARGMIL PONTE SCANDICCI A.S.D. PODISTICA1:04:070:21:39
4474838872CAVALLINI MartaASSFG.S. LE TORRI PODISMO1:04:110:21:42
4484939856LOMBARDINI LuisaASSFASS. RONDINELLA DEL TORRINO1:04:110:21:43
4495040795GARUGLIERI ChiaraASSFATLETICA SIGNA A.S.D.1:04:120:21:43
450400101538PROIETTI RaffaeleVETMG.S. LE TORRI PODISMO1:04:130:21:44
4515141905MALTINTI IlariaASSFPOL. DIL. OMEGA.COM1:04:170:21:48
452401102469ROGOLINO CarmeloVETMATLETICA SIGNA A.S.D.1:04:170:21:48
4534027778BELLACCI AlfredoOROMATL. CALENZANO1:04:260:21:57
4544038782BARZANTI CarloOROMNAVE U.S. A.S.D.1:04:280:21:59
4555242809FIASCHI IlariaASSFPODISTICA VAL DI PESA A.S.D.1:04:310:22:02
45640430727PAMPALONI AndreaARGMISOLOTTO A.P.D.1:04:330:22:04
4575343878MAZZINI DonatellaASSFIL PONTE SCANDICCI A.S.D. PODISTICA1:04:370:22:08
4585444830RAFFAELLI SilviaASSFPOL. FIESOLE ASD1:04:370:22:08
4595545860FORNARI VannaASSFPOL. OLTRARNO1:04:380:22:09
46040526588ARCHETTI AlessioASSMPOL. FIESOLE ASD1:04:380:22:10
461406266175GARAMPI MicheleASSMPOL. OLTRARNO1:04:530:22:24
46240731728LISCI RobertoARGMA.S.D. NUOVA ATLETICA LASTRA1:04:550:22:27
46340826736CAMERINI CorsoASSMNAVE U.S. A.S.D.1:05:020:22:33
464409103611MASI LapoVETMNAVE U.S. A.S.D.1:05:030:22:34
4655646851MORESCHINI LudovicaASSFLA FONTANINA A.P.S.1:05:090:22:40
466410104497FELLINI AlessandroVETMATLETICA SIGNA A.S.D.1:05:090:22:41
46741132698VIGLIONE GennaroARGMPOD. EMPOLESE 19861:05:160:22:47
4685747883LILLO SamanthaASSFAVIS ZERO POSITIVO A.P.D.1:05:200:22:52
46941226866CANOCCHI AlessandroASSMG.S. POLI - PODI A.S.D.1:05:210:22:52
470413105619GECCHELE StefanoVETMG.S. LE PANCHE CASTELQUARTO1:05:240:22:55
471414269141DI PACE MicheleASSMG.S. MAIANO1:05:260:22:57
472415106482MENSUALI MarcoVETMNAVE U.S. A.S.D.1:05:290:23:00
47341627023BERCHIELLI FrancescoASSMPOL. R. MURRI ELLERA1:05:300:23:01
47441733712CERBIONI StefanoARGMG.S. IL FIORINO1:05:330:23:04
4755848813GIAGNONI CarlottaASSFG.S. POLI - PODI A.S.D.1:05:340:23:05
4765949875LEPRI TizianaASSFASD ATLETICA CAPRAIA E LIMITE1:05:360:23:07
47741827155DAMBROSIO NicolaASSMASD TOSCANA ATLETICA EMPOLI NISSA1:05:360:23:07
478419107537SALVINI FabioVETMG.S. LE TORRI PODISMO1:05:370:23:08
4796011952ANDORLINI CristinaVETFPOL. FIESOLE ASD1:05:370:23:09
48042034709ROMITI RaffaelloARGMG.S. MAIANO1:05:400:23:11
481421272247PANCHETTI ClaudioASSMATLETICA MARCIATORI MUGELLO A.S.D.1:05:410:23:12
482422273336GIUNTI MassimoASSMASD ATLETICA CAPRAIA E LIMITE1:05:430:23:14
483423274230VIGNI SimoneASSMASD ATLETICA CAPRAIA E LIMITE1:05:430:23:14
4846150846BORSELLI SilviaASSFLA FONTANINA A.P.S.1:05:430:23:15
4856251845BINI AriannaASSFLA FONTANINA A.P.S.1:05:440:23:15
486424275168SANTONI LeonardoASSMG.S. IL FIORINO1:05:450:23:16
487425108455GAGGIOLI PaoloVETMASD MONTELUPO RUNNERS1:05:460:23:17
4886352803HAIM Mirijam JacquelineASSFNAVE U.S. A.S.D.1:05:500:23:22
489426276322FEI LucaASSMNAVE U.S. A.S.D.1:05:500:23:22
4906453909PAOLETTI MichelaASSF1:05:560:23:27
4916554910FERRONI VirginiaASSFPODISTICA VAL DI PESA A.S.D.1:05:570:23:29
4926612943BACCETTI BeatriceVETFISOLOTTO A.P.D.1:06:000:23:31
49342727793OLIVA FrancescoASSMPOD. DICOMANO1:06:000:23:31
4946755891TOFANI IlariaASSFA.S.D. MEZZANA - LE LUMACHE1:06:010:23:32
4956813946PICCIOLI BeatriceVETFISOLOTTO A.P.D.1:06:030:23:34
496691997FRATI LauraARGFA.S.D. NUOVA ATLETICA LASTRA1:06:040:23:36
49742827892BURBERI RobertoASSMPOD. DICOMANO1:06:050:23:36
49842935721DI GIUSEPPE EnzoARGMA.S.D. NUOVA ATLETICA LASTRA1:06:050:23:36
499430109486STADERINI MarcoVETMASD TOSCANA ATLETICA EMPOLI NISSA1:06:050:23:37
50043127964BENETTINI MassimilianoASSMG.S.D. LIBERTAS LA TORRE1:06:160:23:47
501432110517MALERBA CarloVETMMISERICORDIA GRIGNANO1:06:170:23:48
502433280140CROCIANI GabrieleASSMG.S. MAIANO1:06:170:23:49
50343436742VANNUCCI MarcoARGMG.S. MAIANO1:06:270:23:58
5047056829PAPALINI SoniaASSFPOL. FIESOLE ASD1:06:270:23:59
5057157828DAMIANI SashaASSFPOL. FIESOLE ASD1:06:280:23:59
506435281264BENUCCI AlessandroASSMISOLOTTO A.P.D.1:06:280:23:59
5077258908SMITH Rachel CatherineASSF1:06:310:24:02
508436282101GIANNONE MaurizioASSMLA FONTANINA A.P.S.1:06:320:24:03
50943737691LUSTRINI FrancoARGMG.S.D. LIBERTAS LA TORRE1:06:320:24:03
510438283334CANNONI NicolaASSMCLUB SPORTIVO FIRENZE1:06:330:24:04
51143938726SQUILLANTE AngeloARGMIL PONTE SCANDICCI A.S.D. PODISTICA1:06:330:24:04
512440111454MILANINI RobertoVETM1:06:360:24:08
5137314972CHENET StefaniaVETFG.S. LE TORRI PODISMO1:06:470:24:18
514441112520BIANCHI MaurizioVETMPOL. OLTRARNO1:06:490:24:20
515442284299BENEDETTI GuidoASSMG.S. LE PANCHE CASTELQUARTO1:06:570:24:28
516443285172CECCHI TommasoASSMPOL. OLTRARNO1:06:570:24:28
5174449785PIERRO Luigi FrancescoOROMA.S.D. PODISTICA POMIGLIANO1:07:040:24:35
51844539746FERRONI ArrigoARGMPODISTICA VAL DI PESA A.S.D.1:07:050:24:36
519446286287CACCIATORE AngeloASSMA.S.D. 29 MARTIRI1:07:060:24:37
5207459804FARNE' FedericaASSFNAVE U.S. A.S.D.1:07:060:24:37
521447113479DEGL'INNOCENTI MarcoVETMNAVE U.S. A.S.D.1:07:080:24:40
522448114573LUPOLI LuigiVETM1:07:120:24:44
5237515984CIANFANELLI AngelaVETFG.P. FRATELLANZA POPOLARE GRASSIN1:07:130:24:45
524449287344PACCIANI StefanoASSMPODISTICA VAL DI PESA A.S.D.1:07:200:24:51
5257660870FINESCHI MonicaASSFG.S. LE TORRI PODISMO1:07:210:24:52
526450288221MANGLI IlirASSMG.S. LE TORRI PODISMO1:07:220:24:53
527451289280CIANFERONI GiacomoASSMG.S. IL FIORINO1:07:270:24:58
5287716982BELLINI ElisabettaVETFA.S.D. MEZZANA - LE LUMACHE1:07:440:25:15
5297861903GAMBINERI EleonoraASSFCLUB SPORTIVO FIRENZE1:07:490:25:20
530452115548MALAVOLTA MassimilianoVETMIL PONTE SCANDICCI A.S.D. PODISTICA1:07:540:25:25
5317917950FANI ValeriaVETFPOD. EMPOLESE 19861:07:560:25:27
532453116584GENSINI MarcoVETMATL. CASTELLO1:07:580:25:30
53345429075BIANCHINI GianlucaASSMA.S.D. RUNNERS BARBERINO1:08:040:25:35
534802998TROMBI StefaniaARGFG.S. LE PANCHE CASTELQUARTO1:08:040:25:36
53545540724BUTINI MaurizioARGMIL PONTE SCANDICCI A.S.D. PODISTICA1:08:110:25:42
5368118969BISORI SoniaVETFG.S. LE TORRI PODISMO1:08:150:25:46
537456117485BALDINI CarloVETMA.S.D. RISUBBIANI 20081:08:200:25:52
5388262847CONTI SimonaASSFLA FONTANINA A.P.S.1:08:230:25:54
5398363854VIERI CeciliaASSFLA FONTANINA A.P.S.1:08:230:25:54
540457291219INNOCENTI SimoneASSMPOL. R. MURRI ELLERA1:08:310:26:02
541458118554GALEOTTI MaurizioVETMIL PONTE SCANDICCI A.S.D. PODISTICA1:08:370:26:08
54245929279TONA VincenzoASSMA.S.D. RUNNERS BARBERINO1:08:400:26:11
54346029378DEL PUGLIA AndreaASSMA.S.D. RUNNERS BARBERINO1:08:400:26:12
544461119475VAIANA MarioVETMISOLOTTO A.P.D.1:08:430:26:14
545462120473GRASSI AndreaVETMISOLOTTO A.P.D.1:08:430:26:15
54646329442GRANDIS LorenzoASSMNAVE U.S. A.S.D.1:08:440:26:15
547464295271ACCINNI GaetanoASSMA.S.D. MARATONA MUGELLO1:08:470:26:18
54846510783PANICHI SilvanoOROMPOD.MISERICORDIA AGLIANESE 1980 A.S1:08:480:26:19
54946641733VANGELISTI BrunoARGMCLUB AUSONIA A.S.D.1:08:480:26:19
55046742688VIGNOZZI AlessandroARGMPOL. FIESOLE ASD1:08:580:26:30
551468296276FERRI FilippoASSMA.S.D. EMPOLI TRIATHLON1:09:000:26:32
55246929741GRANDIS FrancescoASSMNAVE U.S. A.S.D.1:09:030:26:35
5538464848FORASIEPI SilviaASSFLA FONTANINA A.P.S.1:09:040:26:35
55447029871PICCHI CiroASSMG.S. POLI - PODI A.S.D.1:09:060:26:37
55547129967BARBINO EnricoASSMG.S. POLI - PODI A.S.D.1:09:080:26:39
55647230063MARTELLI MirkoASSMG.S.D. LIBERTAS LA TORRE1:09:090:26:40
557473301347BIGAGLI GianlucaASSMPODISTICA VAL DI PESA A.S.D.1:09:120:26:44
5588565892DE RONZI PasqualinaASSFCLUB AUSONIA A.S.D.1:09:220:26:53
559474121540QUARANTA EmanueleVETMG.S. PIEVE A RIPOLI1:09:330:27:04
560475122524BENETTI Gian LucaVETMG.S. LE PANCHE CASTELQUARTO1:09:370:27:08
561476302154CASCINO GiovanniASSMG.S. IL FIORINO1:09:380:27:09
5628619987RICCHI RossellaVETFG.S. MAIANO1:09:430:27:14
5638766880COLLIGIANI LindaASSFAVIS ZERO POSITIVO A.P.D.1:09:430:27:15
5648867881BURBERI SaraASSFAVIS ZERO POSITIVO A.P.D.1:09:430:27:15
5658968841MELIS MariaASSFPOL. R. MURRI ELLERA1:09:450:27:17
566477123484RICCI FabrizioVETMNAVE U.S. A.S.D.1:09:470:27:19
5679020986BELLITI TizianaVETFG.P. FRATELLANZA POPOLARE GRASSIN1:09:480:27:20
568478124617SALUCCI FabrizioVETMCRAL QUADRIFOGLIO1:09:520:27:23
569479125472BICCI GabrieleVETMISOLOTTO A.P.D.1:09:520:27:23
5709169849GIGLI AlessandraASSFLA FONTANINA A.P.S.1:09:530:27:25
5719270794CECCONI ValentinaASSFATLETICA SIGNA A.S.D.1:09:550:27:27
57248043713MERCATELLI AndreaARGMG.S. IL FIORINO1:09:570:27:28
573481126532IADEVAIA GiacomoVETMPODISTICA QUARRATA A.S.D.1:09:580:27:29
5749371823CINI ElenaASSFA.S.D. RUNNERS BARBERINO1:10:010:27:32
57548211771MANCINELLI SergioOROMASSI GIGLIO ROSSO1:10:070:27:38
5769472835FRATINI NicolettaASSFG.S. IL FIORINO1:10:180:27:50
577483127502CERBAI AlessandroVETMG.S. IL FIORINO1:10:190:27:50
578484303272PIGNOLONI GabrieleASSMA.S.D. IMPRUNETA RUNNING1:10:190:27:50
57948544719LANDI MarinoARGMCRAL INPS1:10:250:27:56
580486128515MEI MassimoVETMLA FONTANINA A.P.S.1:10:250:27:56
5819573887CIRRI CristinaASSF1:10:300:28:01
582963991IZZO ImmacolataARGFPOD.MISERICORDIA AGLIANESE 1980 A.S1:10:310:28:02
5839721963LEATI EleonoraVETFMISERICORDIA GRIGNANO1:10:410:28:12
584487304157FRATINI SimoneASSMG.S. IL FIORINO1:10:420:28:13
5859822985RONCONI RossanaVETFG.P. FRATELLANZA POPOLARE GRASSIN1:10:510:28:22
586488129488MASINI SauroVETMG.S.D. LIBERTAS LA TORRE1:11:030:28:34
587489130605BRAZZINI MarcoVETM1:11:190:28:50
588490131526CIULLI UgoVETMG.S. LE PANCHE CASTELQUARTO1:11:260:28:58
589994995BATTAGLINI RossanaARGFCRAL INPS1:11:310:29:02
59049145715GARAMPI RiccardoARGMPOL. OLTRARNO1:11:340:29:05
59149230545MARTINISI ClementeASSMNAVE U.S. A.S.D.1:11:460:29:17
592493306192PACINOTTI PierpaoloASSMPODISTICA QUARRATA A.S.D.1:11:510:29:22
59310074852RENAI MashaASSFLA FONTANINA A.P.S.1:11:530:29:24
59410175864GIUSTI CatiusciaASSFPODISTICA QUARRATA A.S.D.1:11:550:29:27
595494132608BELLINI LucaVETMA.S.D. HAPPY RUNNERS1:11:580:29:29
596495133618IORIZZO AntonioVETMG.S. LE PANCHE CASTELQUARTO1:11:590:29:30
59710223955CORSINOVI LuciaVETFLA FONTANINA A.P.S.1:11:590:29:31
5981035993BARSI Maria CeciliaARGFLA FONTANINA A.P.S.1:12:010:29:32
599496307309DE ROBERTIS Andrea CarloASSMU.S. UGNANO1:12:020:29:33
60049746736ORLANDI StefanoARGMLUIVAN SETTIGNANO C.S.1:12:040:29:35
601498134615MORI MassimoVETMPODISTICA VAL DI PESA A.S.D.1:12:100:29:42
602499308348MORI EnricoASSMPODISTICA VAL DI PESA A.S.D.1:12:110:29:42
60310476800BALDI KriziaASSFNAVE U.S. A.S.D.1:12:140:29:46
604500309315ANTONINI MirianoASSMASS. RONDINELLA DEL TORRINO1:12:190:29:50
605501135552TADDEI FrancescoVETMIL PONTE SCANDICCI A.S.D. PODISTICA1:12:240:29:56
60610524968VELLA Maria PiaVETFG.S. LE TORRI PODISMO1:12:260:29:58
607502136481FALORNI MaurizioVETMNAVE U.S. A.S.D.1:12:320:30:03
608503137476BORDONI LucaVETMNAVE U.S. A.S.D.1:12:330:30:04
60950431096BALDINI AlessioASSMLA FONTANINA A.P.S.1:12:330:30:04
61050531150POLVANESI AntonioASSMNAVE U.S. A.S.D.1:12:340:30:05
61110677857TITONE ValeriaASSFASS. RONDINELLA DEL TORRINO1:12:390:30:10
612506138566NERBOSI FabioVETM1:12:410:30:12
613507312295QUERCI FabioASSMCLUB AUSONIA A.S.D.1:12:450:30:17
614508139478BURRONI FabioVETMNAVE U.S. A.S.D.1:12:480:30:19
615509313320PAPOTTO SamueleASSMCLUB SPORTIVO FIRENZE1:12:560:30:27
616510314242USIELLO RaffaeleASSMIL PONTE SCANDICCI A.S.D. PODISTICA1:12:590:30:30
617511140547LOMBARDINI PaoloVETMIL PONTE SCANDICCI A.S.D. PODISTICA1:13:040:30:35
61810778791CANNONE GermanaASSFASD G.P. LE SBARRE1:13:130:30:45
61910825970BAGNI PaolaVETFG.S. LE TORRI PODISMO1:13:140:30:46
62010979811PIERI ClarissaASSFG.S.D. LIBERTAS LA TORRE1:13:200:30:51
62111080911MARTELLI DeniseASSFG.S.D. LIBERTAS LA TORRE1:13:240:30:56
62211181819FIESOLI AriannaASSFA.S.D. RUNNERS BARBERINO1:13:290:31:00
62351247694FIESOLI BrunoARGMA.S.D. RUNNERS BARBERINO1:13:290:31:00
62411282821TREDICI GiuliaASSFA.S.D. RUNNERS BARBERINO1:13:290:31:01
62511383820AIAZZI ElisaASSFA.S.D. RUNNERS BARBERINO1:13:320:31:04
626513141496TREDICI SimoneVETMA.S.D. RUNNERS BARBERINO1:13:330:31:04
62751448734NUTINI MarioARGMA.S.D. RUNNERS BARBERINO1:13:330:31:04
62851531580NUTINI MicheleASSMA.S.D. RUNNERS BARBERINO1:13:340:31:05
629516316129CAPORALI RiccardoASSMPOL. R. MURRI ELLERA1:13:390:31:10
63011426965SAMMICHELI DonataVETFPOL. OLTRARNO1:13:430:31:14
631517142483PISTOLESI PaoloVETMNAVE U.S. A.S.D.1:13:540:31:26
63211527990CAFISSI GioaVETFATLETICA PRATO1:13:570:31:29
63311684886AMERINI SaraASSFATL. CALENZANO1:14:010:31:32
634518317291GERI MarcoASSMA.S.D. 29 MARTIRI1:14:020:31:34
63511785806DE DOMENICO ValeriaASSFNAVE U.S. A.S.D.1:14:230:31:54
63611886861RIGACCI MaiaASSFPOL. OLTRARNO1:14:400:32:11
637519318178SESTINI MaurizioASSMPOL. OLTRARNO1:14:400:32:11
638520319277TONIONI LorenzoASSMATL. CALENZANO1:14:460:32:17
63952149716TARGIONI RobertoARGMPOL. OLTRARNO1:14:580:32:29
64052250690CONTI MarioARGMG.P. FRATELLANZA POPOLARE GRASSIN1:15:000:32:31
64152351714MIRANDA CesarARGMG.S. IL FIORINO1:15:040:32:35
642524320147LATINI MaurizioASSMG.S. MAIANO1:15:050:32:36
64311987898ROSATI PaolaASSFG.S. PIEVE A RIPOLI1:15:110:32:42
64412028957MAIOLI BarbaraVETFATL. PORCARI1:15:120:32:43
64512129941SCATIZZI CristinaVETFCANOTTIERI COMUNALI FIRENZE1:15:160:32:47
646525321145GIANCHINI RobertoASSMG.S. MAIANO1:15:290:33:00
647526143577GIULIANI StefanoVETMCLUB AUSONIA A.S.D.1:15:380:33:09
64812288884TOCCAFONDI SerenaASSFAVIS ZERO POSITIVO A.P.D.1:16:120:33:43
64912330956NUTINI Anna LuciaVETFLA FONTANINA A.P.S.1:16:200:33:52
6501246992STOLFI TeresaARGFPODISTICA PRATONORD A.S.D.1:16:350:34:06
65112589894PERHA FrancescaASSFCLUB AUSONIA A.S.D.1:17:040:34:36
652527322199BELLITI AndreaASSMATL. CALENZANO1:17:050:34:36
653528144461BENCINI MassimoVETMG.S. PIAN DI SAN BARTOLO1:17:220:34:53
65412631958MAESTRINI SilviaVETFPOL. R. MURRI ELLERA1:17:220:34:54
655529145533OLIVIERI RobertoVETMCRAL INPS1:17:530:35:24
65612790874MOCHI Maria GiuliaASSF1:17:540:35:25
65712832964BIANCHI ElianaVETFPOL. OLTRARNO1:17:560:35:27
65853052706MORBIDELLI OscarARGMG.S. MAIANO1:18:080:35:39
65912991865BOVE StefaniaASSFA.S.D. FIRENZE TRIATHLON1:18:080:35:39
660531323311MONTELATICI FabrizioASSMG.S. MAIANO1:18:080:35:40
66113092862CANESCHI MarziaASSFG.S. LE PANCHE CASTELQUARTO1:18:410:36:12
66213133960CORNA RenataVETFG.S. MAIANO1:18:540:36:25
66313234940NARDOZZA LuciaVETFMISERICORDIA SAN PIERO A PONTI1:19:020:36:33
66413393850MAZZONI FrancescaASSFLA FONTANINA A.P.S.1:19:050:36:36
66513494802RAMETTI Maria SerenaASSFNAVE U.S. A.S.D.1:19:050:36:36
66613535977BELLINI CinziaVETFIL PONTE SCANDICCI A.S.D. PODISTICA1:19:190:36:50
66713636989VALENTINI MarisaVETFG.S. MAIANO1:19:370:37:08
66813737988GORI SandraVETFG.S. MAIANO1:19:370:37:08
66913895825MOLETTIERI MichelaASSFATLETICA SIGNA A.S.D.1:20:050:37:36
67013996817ZAFFINO SimonaASSFA.S.D. RUNNERS BARBERINO1:20:560:38:27
67114038948NICCOLI RitaVETFA.S.D. RUNNERS BARBERINO1:20:560:38:27
67214139949GRANZA ROCCHETTA MariaVETFA.S.D. RUNNERS BARBERINO1:20:560:38:28
673532146494SALVADORI AlessandroVETMA.S.D. RUNNERS BARBERINO1:20:580:38:29
67414297816TAGLIENTE SaraASSFA.S.D. RUNNERS BARBERINO1:20:590:38:30
67553332483GIORGI DamianoASSMPOD. EMPOLESE 19861:21:100:38:42
67614398859FANETTI CristinaASSFPOL. OLTRARNO1:21:180:38:49
67714440976GALLETTI PaolaVETFG.S. LE TORRI PODISMO1:21:310:39:03
67853453738LUCHINI MassimoARGMU.S. UGNANO1:21:370:39:08
679535325236UCCIERO SimoneASSMATL. CASTELLO1:21:550:39:26
68014599843BUCCIARDINI SimonaASSFPOL. R. MURRI ELLERA1:22:500:40:21
681536147568GALLI SergioVETMATLETICA PRATO1:23:300:41:01
68214641966SILORI CinziaVETFG.S. LE PANCHE CASTELQUARTO1:24:010:41:32
68353712777PANE FrancescoOROMIL PONTE SCANDICCI A.S.D. PODISTICA1:24:010:41:32
68414742978NANNINI CaterinaVETFISOLOTTO A.P.D.1:24:110:41:42
685148100890VANNUCCHI LetiziaASSFA.S.D. 29 MARTIRI1:24:180:41:50
68614943975BIGAZZI LuciaVETFG.S. LE TORRI PODISMO1:24:220:41:54
6871507996SANTINI SoniaARGFG.S. PIEVE A RIPOLI1:24:280:41:59
688151101858ARAUJO GONZALEZ SaraASSFASS. RONDINELLA DEL TORRINO1:25:110:42:43
68953813790MARCHI FrancoOROMLUIVAN SETTIGNANO C.S.1:26:540:44:25
69015244973DUGINI SandraVETFG.S. LE TORRI PODISMO1:28:260:45:58
69153914786CALAMAI MarcelloOROMA.S.D. 29 MARTIRI1:29:560:47:27
692540148593GALLO FrancescoVETMG.S. MAIANO1:30:320:48:03
69354115774MINIATI WalterOROMG.S. IL FIORINO1:33:400:51:11
69415345962MINIATI AmbraVETFG.S. IL FIORINO1:33:410:51:12
69554216787SIMONI MirianoOROMCLUB AUSONIA A.S.D.1:34:540:52:25
696154102815MICHELI LaraASSFA.S.D. RUNNERS BARBERINO1:38:200:55:52